Starlink 34109

operational
NORAD ID: 63807 Int'l Des: 2025-092 Owner: SPXS Country: US Constellation: starlink
LEOCIRCULAR

Über Starlink 34109

Beschreibung wird geladen...

Live-Position

3D-Globus wird geladen...

Nächste Überflüge

Höhenverlauf

Altitude vs Time

uPlot chart will show altitude changes over time

Zweizeiliger Elementsatz

1 63807U 25092D 26035.25378267 .00037296 00000-0 13576-2 0 9999
2 63807 43.0004 1.1517 0001333 282.2120 77.8582 15.27589250 43502
Epoch: 4. Feb. 2026 • Age: 25 hours

Aktueller Status

Höhe 481.9 km
Geschwindigkeit 7.63 km/s
Subsatellitenpunkt 15.57°N, 127.56°E
Startdatum 4. Mai 2025
Alter 0.7 years
Typ internet

Technische Details

Klassifizierung Payload
Masse 575.00 kg
Trockenmasse 530.00 kg
Gesamtmasse 575.00 kg
Länge 0.30 m
Durchmesser 4.10 m
Spannweite 29.00 m
Form Box + pan
Hersteller SPXS
Bus-Typ Starlink V2MO
Phasenstatus In Orbit
Besitzer/Staat SPXS/US

Große Konstellationen

Loading constellations...